Elk Grove Village, Illinois, United States (60007)
Lat: 42.00N, Lon: 87.97W
Wx Zone: ILZ014
Local Info
Past Weather Observations for Today

NOTE: This archive is for the closest National Weather Service station to Elk Grove Village. Information may differ from the station used for current weather conditions.

Click here for Long-term Archive

Time Weather Temperature Dewpoint Humidity Pressure Winds Precip Visibility
19:51
Clear
19°F / -7°C 3°F / -16°C 49% 30.21 in
(1023 mb)
NW 13.8 mph
(NW 22 kph)
- 10SM
18:51
Clear
19°F / -7°C 3°F / -16°C 49% 30.18 in
(1022 mb)
WNW 11.5 mph
(WNW 19 kph)
- 10SM
17:51
Clear
21°F / -6°C 3°F / -16°C 45% 30.15 in
(1021 mb)
WNW 11.5 mph
(WNW 19 kph)
- 10SM
16:51
Partly Cloudy
23°F / -5°C 1°F / -17°C 39% 30.12 in
(1020 mb)
W 13.8 mph
(W 22 kph)
- 10SM
15:51
Partly Cloudy
25°F / -4°C 1°F / -17°C 36% 30.09 in
(1019 mb)
WNW 17.3 mph
(WNW 28 kph)
- 10SM
14:51
Partly Cloudy
27°F / -3°C 1°F / -17°C 33% 30.09 in
(1019 mb)
W 18.4 mph
(W 30 kph)
- 10SM
13:51
Partly Cloudy
27°F / -3°C °F / -18°C 31% 30.06 in
(1018 mb)
W 21.9 mph
(W 35 kph)
- 10SM
12:51
Partly Cloudy
27°F / -3°C 1°F / -17°C 33% 30.06 in
(1018 mb)
W 20.7 mph
(W 33 kph)
- 10SM
11:51
Partly Cloudy
27°F / -3°C 3°F / -16°C 36% 30.06 in
(1018 mb)
WNW 23 mph
(WNW 37 kph)
- 10SM
10:51
Partly Cloudy
25°F / -4°C 9°F / -13°C 50% 30.06 in
(1018 mb)
W 19.6 mph
(W 32 kph)
- 10SM
09:51
Partly Cloudy
25°F / -4°C 9°F / -13°C 50% 30.06 in
(1018 mb)
W 17.3 mph
(W 28 kph)
- 10SM
08:51
Partly Cloudy
19°F / -7°C 10°F / -12°C 68% 30.06 in
(1018 mb)
W 15 mph
(W 24 kph)
- 10SM
07:51
Partly Cloudy
18°F / -8°C 10°F / -12°C 73% 30.04 in
(1017 mb)
W 16.1 mph
(W 26 kph)
- 10SM
06:51
Partly Cloudy
18°F / -8°C 10°F / -12°C 73% 30.04 in
(1017 mb)
W 12.7 mph
(W 20 kph)
- 10SM
05:51
Partly Cloudy
18°F / -8°C 10°F / -12°C 73% 30.01 in
(1016 mb)
W 15 mph
(W 24 kph)
- 10SM
04:51
Clear
18°F / -8°C 10°F / -12°C 73% 30.01 in
(1016 mb)
W 13.8 mph
(W 22 kph)
- 10SM
03:51
Clear
19°F / -7°C 12°F / -11°C 73% 30.01 in
(1016 mb)
W 16.1 mph
(W 26 kph)
- 10SM
02:51
Clear
19°F / -7°C 12°F / -11°C 73% 30.01 in
(1016 mb)
SSW 12.7 mph
(SSW 20 kph)
- 10SM
01:51
Clear
19°F / -7°C 12°F / -11°C 73% 30.01 in
(1016 mb)
SSW 12.7 mph
(SSW 20 kph)
- 10SM
00:51
Clear
19°F / -7°C 10°F / -12°C 68% 30.01 in
(1016 mb)
SSW 11.5 mph
(SSW 19 kph)
- 10SM
Time Weather Temperature Dewpoint Humidity Pressure Winds Precip Visibility


Weather for websites

WeatherForYou.com, LLC is not responsible for any damages or problems caused by this service. Current weather conditions are obtained from the closest station including government and personal stations which may have varying degrees of accuracy. Weather forecasts are derived from the NOAA NDFD. Like all things, this site belongs to Jesus Christ... He just trusts me to maintain it. If you have any questions or comments email webmaster@weatherforyou.com

Copyright © 2014, WeatherForYou.com LLC. All rights reserved.